Contact Us:
Email: info@sawbill.com
Phone: (218)663-7150
Fax: (218)663-7980
Mail: 4620 Sawbill Trail
Box 2129
Tofte, MN 55615


Powered by
Movable Type 3.15
 
Sawbill Weather History
Check out the 7 Day Weather Forecast for the Superior National Forest.
Date High
Temperature
Low
Temperature
Barometric
Pressure
Relative
Humidity 7AM
9 AM
Temperature
Moisture Snow
8/10/17 62 52 30.08 98% 52 .63"
8/9/17 70 56 30.04 95% 58 .40"
8/8/17 73 56 30.08 90% 56 .59"
8/7/17 73 50 30.08 66% 63 0"
8/5/17 69 50 30.04 76% 51 0"
8/4/17 67 53 30.00 90% 54 Trace
8/3/17 67 50 30.12 71% 53 0"
8/1/17 77 54 30.12 71% 55 .14"
7/31/17 83 64 30.06 63% 63 .09"
7/30/17 84 62 30.14 83% 64 0"
7/29/17 81 53 30.14 77% 53 0"
7/28/17 78 51 30.14 71% 53 0"
7/27/17 74 51 30.12 74% 51 0"
7/25/17 76 58 30.08 72% 58 0"
7/24/17 73 50 30.04 71% 62 .04"
7/23/17 74 49 30.10 74% 50 0"
7/23/17 71 48 30.10 84% 57 0"
7/22/17 75 55 30.00 84% 58 .03"
7/21/17 76 55 30.00 72% 55 Trace
7/20/17 76 57 30.04 78% 58 0"
7/19/17 72 53 30.02 86% 57 0"
7/17/17 75 46 30.02 30% 55 0"
7/16/17 68 45 30.08 75% 46 0"
7/15/17 75 50 30.14 72% 51 .70"
7/14/17 74 51 30.04 88% 59 0"
7/13/17 57 50 30.12 94% 51 .23"
7/12/17 59 50 30.08 98% 50 .92"
6/13/17 74 53 29.96 98% 56 2.3"
6/10/17 83 53 29.94 74% 56 0"
6/9/17 74 50 29.74 47% 62 .23"
6/8/17 75 50 30.00 75% 50 .03"
6/7/17 78 42 30.06 76% 58 .06"
6/6/17 74 40 30.12 67% 42 0"
6/5/17 71 49 30.04 79% 50 .28"
6/3/17 77 47 29.96 35% 60 Trace
5/31/17 61 41 30.06 50% 49 0"
5/30/17 53 44 29.92 84% 45 0"
5/29/17 56 45 29.88 85% 45 .02"
5/28/17 58 47 29.86 90% 51 .17"
5/28/17 58 47 29.86 90% 51 .17"
5/27/17 69 47 29.90 70% 47 0"
5/26/17 65 37 29.96 89% 48 .12"
5/23/17 61 36 29.94 71% 37 0"
5/22/17 55 39 29.96 47% 50 .08"
5/21/17 55 50 29.80 91% 53 0"
5/20/17 47 41 29.92 92% 45 .30"
5/19/17 52 37 30.00 88% 42 .23"
5/18/17 55 33 30.24 53% 36 0"
5/17/17 53 33 30.22 71% 39 0"
5/16/17 58 37 29.94 89% 37 .76"
5/15/17 69 46 29.98 84% 50 0"
5/14/17 58 44 30.06 51% 46 Trace
5/13/17 61 41 30.06 36% 50 0"
5/12/17 64 39 30.04 66% 40 0"
5/11/17 58 38 30.10 67% 42 0"
5/10/17 62 37 30.08 59% 43 0"
5/9/17 59 36 30.00 38% 51 0"
5/8/17 52 26 30.10 39% 38 0"
5/6/17 54 25 30.12 56% 26 0"
5/4/17 58 33 30.00 82% 41 Trace
5/3/17 59 34 30.10 68% 40 Trace
5/2/17 50 31 30.02 79% 34 0"
5/1/17 38 33 29.84 77% 33 0"
4/30/17 48 37 29.02 40% 38 0"
4/29/17 47 26 30.18 44% 36 0"
4/28/17 34 25 30.12 72% 26 Trace
4/27/17 26 18 29.82 77% 26 Trace Trace
4/26/17 27 18 29.74 78% 19 1.05" 2"
4/25/17 48 24 29.84 80% 25 .20"
4/24/17 41 35 29.86 82% 39 .08" Trace
4/23/17 62 26 30.02 53% 34 .5"
4/22/17 62 30 30.16 61% 30 0"
4/21/17 55 32 30.14 49% 48 0"
4/20/17 37 32 30.10 90% 33 1.25" 1.36"
4/19/17 47 33 30.08 76% 36 0"
3/9/17 15 -10 30.32 37% -10 0"
3/8/17 12 3 30.08 63% 4 Trace Trace
3/7/17 27 8 29.70 63% 8 0"
3/6/17 44 22 29.50 83% 22 Trace Trace
3/5/17 37 28 29.88 94% 36 0"
3/4/17 29 1 30.00 75% 29 0"
3/3/17 16 -5 30.30 35% 1 0"
3/2/17 14 -7 30.26 34% -5 0"
3/1/17 24 7 30.14 44% 8 0"
2/28/17 29 2 30.00 49% 25 0"
2/27/17 29 2 30.00 78% 25 .19" 2.5"
2/26/17 19 -1 29.90 40% 2 Trace Trace
2/25/17 22 9 29.84 65% 17 Trace Trace
2/24/17 17 8 29.94 45% 9 0"
2/23/17 30 10 30.20 47% 10 0"
2/22/17 37 27 29.96 59% 27 Trace Trace
2/21/17 45 33 29.86 64% 34 0"
2/20/17 42 33 29.60 92% 33 .72"
2/19/17 42 31 30.02 69% 37 0"
2/18/17 46 31 29.94 77% 32 0"
2/17/17 47 22 29.78 82% 35 0"
2/16/17 26 17 29.80 78% 22 0"
2/15/17 17 7 29.94 75% 17 0"
2/14/17 30 7 29.96 51% 7 0"
2/13/17 40 19 29.86 66% 28 0"
2/12/17 28 19 30.80 60% 21 Trace Trace
2/11/17 28 14 29.94 65% 20 .07" .5"
2/9/17 14 -2 29.78 79% 14 .3" 3.5"
2/8/17 8 -10 30.08 61% -8 Trace Trace
2/7/17 10 -1 30.02 61% -1 .2" 2"
2/6/17 12 4 30.00 68% 4 .58" 8"
2/5/17 12 3 30.28 66% 3 Trace Trace
2/4/17 22 5 30.24 64% 5 .08 1"
2/3/17 11 -7 30.04 60% 5 0
2/2/17 6 -7 30.14 60% -7 0
2/1/17 9 -5 30.40 60% -5 .26" 3"
1/31/17 24 2 30.01 60% 2 0"
1/30/17 21 11 29.80 83% 21 0.25" 2"
1/29/17 12 -4 29.86 55% 10 0"
1/28/17 20 7 29.92 55% 7 0"
1/27/17 27 16 29.84 59% 19 Trace Trace
1/26/17 28 24 29.90 75% 26 0"
1/25/17 32 24 29.90 84% 24 0"
1/24/17 36 31 29.94 88% 31 Trace Trace
1/23/17 35 32 29.88 98% 33 Trace Trace
1/22/17 35 25 28.40 98% 34 Trace Trace
1/20/17 34 25 29.88 95% 25 0"
1/19/17 35 20 29.92 98% 29 0"
1/18/17 34 9 29.92 69% 29 0"
1/16/17 33 8 30.03 67% 8 0"
1/15/17 30 10 30.12 69% 16 0"
1/14/17 14 3 30.19 60% 16 0"
1/13/17 6 -18 30.30 26% 3 0"
1/12/17 3 -19 30.46 26% -18 0"
1/11/17 24 -4 29.84 72% -2 .35" 4.20"
1/9/17 22 5 29.74 90% 22 .34" 3.5"
1/7/17 10 -9 30.10 70% 6 0"
1/6/17 -3 -9 30.28 70% -9 0"
1/5/17 -1 -16 30.16 70% -8 0"
1/4/17 -7 -14 29.95 70% -14 0"
1/3/17 26 -10 29.94 70% -10 Trace Trace
1/2/17 26 16 30.00 93% 25 .41" 4.75"
1/1/17 19 2 30.16 82% 16 Trace Trace
12/31/16 19 8 29.89 82% 18 .07" .8"
12/30/16 17 6 29.80 79% 9 .14" 2.5"
 


Home I Trip Planning I Rentals and Outfitting I Reservations I Campgrounds I Sawbill Store I Sawbill News I Contact

© 1997 - 2017, Sawbill Canoe Outfitters, Inc. I Privacy Policy